Weather in Nelkhay

Russia / Irkutsk Oblast     53°21′27″N   103°07′48″E
temp.,
°C
wind,
m/s
gust,
m/s
humid.,
%
clouds,
%
prec.,
mm/h
press.,
hPa
HPBL,
m
15 april, thu
thu1523:00−1w2570100 0.0 1019105
02:00−1ssw3772100 0.0 1015217
05:00−1ssw3770100 0.0 1012262
08:00−1wsw3888100 0.4 1012482
11:00+1nnw91373100 1.1 10141292
14:00+3nnw101452100 1.5 10182188
17:00+3nnw9134943 0.2 10202083
20:000nw6116497 0.3 1023468
16 april, fri
fri1623:00−1w367382 0.0 1025190
02:00−1wsw25756 0.0 1025125
05:00−2ssw35729 0.0 1023121
08:000s476476 0.0 1022262
11:00+6s673955 0.0 1019673
14:00+10ssw342629 0.0 10161091
17:00+12sse24246 0.0 10141377
20:00+8se33465 0.0 101335
17 april, sat
sat1723:00+5s33545 0.0 101330
02:00+4s336610 0.0 101232
05:00+2s337660 0.0 101132
08:00+4s34708 0.0 1011111
11:00+11s33435 0.0 1008427
14:00+15sw133051 0.0 10061714
17:00+7n111470100 0.0 1010679
20:00+2n81278100 0.0 1014814
18 april, sun
sun1823:00+1n61071100 0.0 10171084
02:00−1nnw4668100 0.0 1018644
05:00−2n4579100 0.0 1018434
08:00−1ne347593 0.0 1017457
11:00+2se345793 0.0 10141084
14:00+7sse334641 0.0 10111273
17:00+9sse234111 0.0 10091188
20:00+7sse225127 0.0 100920
19 april, mon
mon1923:00+6ssw3559100 0.0 1011134
02:00+4w2480100 0.4 1012110
05:00+1nnw51196100 0.1 1015609
08:00+1nnw377980 1.0 1017811
11:00+4e335272 0.0 10151189
14:00+7se4453100 0.0 10121257
17:00+9ese4452100 0.0 10081066
20:00+8ese4863100 0.0 1007340